Regional Weather Roundup
Issued by NWS Cleveland, OH

Home | Current Version | Previous Version | Graphics & Text | Print | Product List | Glossary On
Versions: 1 2 3 4 5 6 7 8 9 10 11 12 13 14 15 16 17 18 19 20 21 22 23 24 25 26 27 28 29 30 31 32 33 34 35 36 37 38 39 40 41 42 43 44 45 46 47 48 49 50
000
ASUS41 KCLE 221212
RWRCLE
OHIO REGIONAL WEATHER ROUNDUP
NATIONAL WEATHER SERVICE WILMINGTON, OH
700 AM EST SUN JAN 22 2017

NOTE: "FAIR" INDICATES FEW OR NO CLOUDS BELOW 12,000 FEET WITH NO
SIGNIFICANT WEATHER AND/OR OBSTRUCTIONS TO VISIBILITY.

OHZ001>008-015>018-024>027-034-035-043-044-221300-
   NORTHWEST OHIO

CITY           SKY/WX    TMP DP  RH WIND       PRES   REMARKS
DEFIANCE       CLOUDY    47  45  93 NW3       29.59R
FINDLAY        MOCLDY    48  45  89 S7        29.59F FOG
TOLEDO EXPRESS LGT RAIN  42  42 100 E5        29.59R FOG
TOLEDO EXEC    CLOUDY    47  46  97 E5        29.61R FOG
LIMA           FOG       46  46 100 S3        29.59F VSB 1/2
$$

OHZ009>014-019>023-028>033-038-089-221300-
   NORTHEAST OHIO

CITY           SKY/WX    TMP DP  RH WIND       PRES   REMARKS
CLE-HOPKINS    FAIR      47  45  93 S5        29.65R
CLE-LAKEFRONT  FAIR      53  49  86 S9        29.61R
CUY CO. ARPT   MOCLDY    52  50  93 S7        29.62
LORAIN-ELYRIA  FAIR      45  43  93 SW3       29.63R FOG
ASHTABULA      MOCLDY    50  50 100 W3        29.62S
AKRON-CANTON   MOCLDY    51  48  89 CALM      29.63R FOG
WOOSTER        FOG       42  41  96 CALM      29.62R VSB 1/4
MANSFIELD      FOG       46  46 100 CALM      29.61F VSB 3/4
YOUNGSTOWN     MOCLDY    48  47  96 CALM      29.63R
$$

OHZ042-051>053-060>062-070>072-077>081-221300-
  SOUTHWEST OHIO

CITY           SKY/WX    TMP DP  RH WIND       PRES   REMARKS
CINC-COVINGTON MOCLDY    49  48  97 E5        29.58R
CINC-LUNKEN    FOG       42  42 100 CALM      29.60R VSB 1/2
HAMILTON       FOG       38  38 100 CALM      29.60R VSB 1/4
DAYTON         FAIR      44  44 100 NE6       29.61R FOG
WRIGHT-PAT AFB FOG       39  39 100 CALM      29.60R VSB 3/4
DAYTON GENERAL FAIR      45  44  97 NE8       29.59R FOG
WILMINGTON     FAIR      44  43  96 E5        29.60R FOG
$$

OHZ036-037-039>041-045>050-054>059-063>069-073>076-082>088-221300-
  CENTRAL AND SOUTHEAST OHIO

CITY           SKY/WX    TMP DP  RH WIND       PRES   REMARKS
COLUMBUS       MOCLDY    46  45  96 CALM      29.61R
OSU AIRPORT    CLOUDY    47  47 100 NW9       29.62R FOG
BOLTON FIELD   CLOUDY    48  48 100 E3        29.62R
RICKENBACK AFB FOG       45  45 100 CALM      29.61R VSB 3/4
NEWARK         FOG       41  40  96 CALM      29.61R VSB 1/4
MARION         FOG       41  41 100 SE5       29.61F VSB 1/4
LANCASTER      FOG       43  41  93 CALM      29.62R VSB 1/4
ZANESVILLE     MOCLDY    49  48  97 W3        29.62R
NEW PHILLY     FOG       48  48 100 CALM      29.62F VSB 1/4
$$




USA.gov is the U.S. government's official web portal to all federal, state and local government web resources and services.